This is the latest recevied weather packets stored in our database for station/object WD7OO. If no packets are shown the sender has not sent any weather packets the latest 10 day(s).
| Time | Temp. | Humidity | Pressure | Rain* | Wind** | Luminosity | Snow |
|---|---|---|---|---|---|---|---|
| 1788310774 | 27.78° C | 94% | 1015.5 hPa | 0 mm | - | 0 W/m² | - |
| 1788310473 | 27.78° C | 95% | 1015.3 hPa | 0 mm | - | 0 W/m² | - |
| 1788310170 | 27.78° C | 95% | 1015.3 hPa | 0 mm | - | 0 W/m² | - |
| 1788309869 | 27.78° C | 95% | 1015.5 hPa | 0 mm | - | 0 W/m² | - |
| 1788309565 | 27.78° C | 94% | 1015.5 hPa | 0 mm | - | 0 W/m² | - |
| 1788309264 | 27.78° C | 93% | 1015.2 hPa | 0 mm | - | 0 W/m² | - |
| 1788308960 | 28.33° C | 93% | 1015.4 hPa | 0 mm | - | 0 W/m² | - |
| 1788308655 | 28.33° C | 92% | 1015.3 hPa | 0 mm | - | 0 W/m² | - |
| 1788308349 | 28.33° C | 92% | 1015.5 hPa | 0 mm | - | 1 W/m² | - |
| 1788308044 | 28.33° C | 91% | 1015.4 hPa | 0 mm | - | 3 W/m² | - |
| 1788307739 | 28.33° C | 92% | 1015.4 hPa | 0 mm | - | 5 W/m² | - |
| 1788307434 | 28.89° C | 92% | 1015.5 hPa | 0 mm | - | 7 W/m² | - |
| 1788307129 | 28.89° C | 91% | 1015.5 hPa | 0 mm | - | 12 W/m² | - |
| 1788306829 | 28.89° C | 90% | 1015.6 hPa | 0 mm | - | 16 W/m² | - |
| 1788306525 | 29.44° C | 90% | 1015.7 hPa | 0 mm | - | 20 W/m² | - |
| 1788306224 | 29.44° C | 89% | 1015.6 hPa | 0 mm | - | 25 W/m² | - |
| 1788305919 | 30° C | 88% | 1015.7 hPa | 0 mm | - | 31 W/m² | - |
| 1788305615 | 30° C | 86% | 1015.7 hPa | 0 mm | - | 38 W/m² | - |
| 1788305311 | 30° C | 87% | 1015.8 hPa | 0 mm | - | 44 W/m² | - |
| 1788305005 | 30° C | 85% | 1015.8 hPa | 0 mm | - | 52 W/m² | - |
| 1788304701 | 30° C | 85% | 1015.7 hPa | 0 mm | - | 58 W/m² | - |
| 1788304398 | 30° C | 85% | 1015.7 hPa | 0 mm | - | 60 W/m² | - |
| 1788304094 | 30° C | 84% | 1015.8 hPa | 0 mm | - | 64 W/m² | - |
| 1788303793 | 30.56° C | 83% | 1015.8 hPa | 0 mm | - | 66 W/m² | - |
| 1788303488 | 30.56° C | 82% | 1015.8 hPa | 0 mm | - | 65 W/m² | - |
* Rain latest hour (hover to see other rain measurements)
** Current wind speed in m/s (hover to see current wind gust speed)